{"data":{"norad_id":48136,"intl_designator":"2021-027AW","name":"STARLINK-2479","alt_names":[],"object_type":"PAYLOAD","status":"ACTIVE","operator":null,"country":"US","launch_date":"2021-04-07","launch_site_code":"AFETR","launch_vehicle":null,"mission":null,"orbit_class":"UNKNOWN","rcs_meters":null,"size_class":null,"mass_kg":null,"dimensions":null,"purposes":["comms"],"wikipedia_slug":null,"has_3d_model":false,"image_url":null,"decayed_at":null,"tle_current":{"epoch":"2026-09-20T04:26:41.195328Z","epoch_age_seconds":56466,"freshness":"FRESH","line1":"1 48136U 21027AW  26263.18519902  .00000940  00000+0  42053-4 0  9998","line2":"2 48136  53.1611 340.3981 0001053  68.5717 291.5397 15.31706327302312","mean_motion":15.31706327,"eccentricity":0.0001053,"inclination_deg":53.1611,"raan_deg":340.3981,"arg_perigee_deg":68.5717,"mean_anomaly_deg":291.5397,"bstar":4.2053e-5,"rev_number":30231,"period_min":94.012799622,"perigee_km":469.9999500712,"apogee_km":471.4423195944,"semimajor_km":6848.8581348328,"source":"CELESTRAK","updated_at":"2026-09-20T09:00:38.768624Z"}}}